Temp
21 21 21 20 18 15 17 19 20 22 25 26 26 25 25 25 25 23 22 24 23 23 23 22 23 23 22 21 20 21 21 21 21 21 20 20 20 20 19 19 19 18 18 18 18 18 18 17 18
21 21 21 15 16 16 17 19 22 22 25 26 25 24 25 25 23 21 21 22 23 23 23 22 22 22 22 21 20 20 20 20 20 20 20 20 20 19 19 19 18 18 18 18 18 18 18 17 17
21 21 17 16 14 15 18 21 23 23 25 25 26 25 24 24 23 21 24 24 23 23 22 22 21 21 21 21 20 20 20 20 20 20 20 20 19 19 19 18 18 18 18 18 18 18 17 17 17
21 18 15 16 16 16 19 22 22 22 25 25 25 25 24 24 22 24 24 24 23 22 22 21 21 21 20 20 20 20 19 19 20 19 19 19 19 19 19 18 18 18 18 18 18 17 17 16 17
20 14 15 15 17 17 20 21 22 23 24 25 25 24 24 23 24 24 23 23 22 21 21 21 21 21 20 20 20 20 19 19 19 19 18 18 18 18 18 18 18 18 18 18 17 17 16 16 17
16 14 14 15 17 19 20 21 23 23 24 24 24 22 22 23 23 22 22 22 22 22 20 20 20 20 20 20 20 20 20 19 19 18 18 17 18 18 18 18 17 17 17 17 17 16 16 16 16
16 14 15 16 18 19 22 22 23 23 23 23 24 22 22 21 22 22 21 21 22 22 21 20 20 19 18 19 19 20 20 19 18 17 17 16 17 17 17 17 17 17 17 17 16 16 16 16 16
15 14 15 16 19 19 22 23 24 24 23 25 23 22 21 20 22 21 21 20 20 20 20 20 19 19 18 18 18 18 19 18 18 16 15 16 16 17 17 18 17 17 17 16 16 16 16 16 16
16 15 13 16 18 20 22 22 23 24 24 24 24 21 23 23 21 20 19 19 19 18 19 19 19 18 18 18 18 18 18 17 17 19 16 16 15 16 16 17 17 17 17 16 16 16 16 16 16
16 13 16 17 20 20 21 21 21 23 22 23 24 21 20 21 19 18 17 16 17 18 18 18 18 18 18 19 18 18 17 16 15 16 16 16 16 16 16 17 17 17 16 16 16 16 16 16 15
16 17 18 19 20 20 20 21 22 22 22 23 23 22 19 19 19 18 17 18 18 19 18 17 17 17 16 17 17 16 16 15 14 15 15 15 15 15 15 16 17 17 16 16 16 16 15 15 15
16 17 19 20 20 20 19 20 21 21 23 23 23 21 19 19 19 18 17 18 18 18 18 17 17 16 16 16 15 15 15 15 15 15 15 16 16 16 16 15 16 16 16 15 16 16 16 15 15
16 18 19 19 19 19 20 20 21 21 22 23 22 20 19 20 19 19 18 19 18 18 17 16 16 16 15 15 15 15 15 15 15 15 15 16 16 15 15 15 15 16 16 15 15 16 15 15 15
18 18 19 19 19 20 20 21 21 22 23 22 21 20 20 19 18 17 17 17 17 18 17 16 16 16 15 15 15 15 15 16 15 14 14 14 15 14 15 14 15 15 16 15 16 15 15 15 16
18 17 18 19 19 19 20 20 19 22 22 22 21 21 20 19 18 18 17 16 18 18 17 16 15 16 15 15 15 14 14 14 15 14 13 13 14 15 14 14 14 15 16 15 15 15 16 16 16
18 18 17 20 19 20 20 20 21 21 21 21 21 20 20 18 19 19 18 17 18 18 17 16 15 15 15 15 15 14 14 13 13 14 15 13 14 15 14 13 14 15 15 15 15 15 15 15 15
16 16 16 18 20 20 19 20 21 21 22 21 21 19 20 19 18 17 16 17 18 17 16 15 15 15 15 15 15 14 13 13 14 14 13 13 14 14 13 13 14 15 15 15 15 15 16 15 15
15 15 16 17 19 20 19 18 19 21 21 20 20 20 19 20 20 18 16 16 17 16 16 15 15 15 15 15 15 13 13 13 13 14 14 13 14 14 13 14 14 15 14 15 15 16 16 16 16
16 16 15 16 18 18 18 18 19 20 19 19 21 22 18 19 22 17 15 15 15 14 15 15 15 14 15 14 14 14 13 13 14 14 13 13 14 13 14 14 14 15 15 15 15 16 16 15 15
15 15 15 17 18 19 17 17 19 20 19 21 22 22 20 18 16 15 14 14 14 13 14 14 14 15 15 14 13 13 13 13 13 14 14 14 14 14 14 14 14 14 14 15 15 16 15 15 15
15 15 16 16 18 19 18 18 19 21 20 21 21 22 21 19 17 16 15 14 13 13 13 14 15 15 14 13 13 13 13 12 13 14 14 14 14 14 13 14 14 14 14 15 15 16 16 15 15
14 16 17 16 16 16 18 16 18 19 20 22 21 20 19 19 19 17 15 14 14 13 13 14 14 14 14 13 12 14 13 13 12 13 13 13 14 13 13 13 14 15 15 15 16 16 16 16 15
14 16 15 15 15 15 16 15 18 20 21 22 22 22 19 19 19 18 16 15 14 13 13 13 13 12 13 13 12 12 12 12 13 12 13 13 13 13 13 13 14 14 15 15 15 15 16 16 15
16 14 14 15 15 14 16 16 16 19 21 23 23 23 20 18 19 19 18 15 14 14 13 13 13 13 13 13 12 12 12 12 12 12 12 13 13 12 13 13 14 14 14 14 15 15 15 15 16
15 13 14 14 14 15 17 17 18 20 22 23 23 24 22 18 19 18 16 14 14 14 13 12 13 12 12 13 13 13 13 12 13 12 12 12 12 13 13 13 13 13 13 14 14 14 15 14 14
14 13 14 14 14 15 19 18 20 22 23 22 22 22 21 19 20 18 16 15 14 14 13 13 12 12 12 12 12 12 13 12 12 12 12 12 12 12 13 13 13 13 13 14 14 14 14 14 13
13 12 14 13 13 13 15 18 21 21 21 20 18 19 20 18 20 18 16 15 14 14 13 13 12 12 12 12 12 12 12 12 12 12 12 12 12 12 12 13 13 13 13 13 13 13 13 13 13
14 15 13 13 14 14 16 19 17 16 17 18 18 17 16 18 17 17 17 15 14 13 13 13 13 12 12 12 12 12 12 12 12 12 12 12 12 12 12 13 13 13 13 13 13 12 13 13 13
13 13 13 13 14 15 15 16 16 14 15 17 17 16 15 17 17 17 16 15 14 13 13 13 12 12 12 11 12 12 12 12 12 12 12 12 12 12 12 13 13 13 13 13 13 13 12 12 12
14 14 12 13 14 13 13 15 15 15 15 16 16 16 14 15 16 16 15 14 14 13 13 12 12 12 12 12 12 11 12 12 12 12 12 12 12 12 12 13 13 13 13 13 13 13 13 13 13
Height
763 766 767 769 794 805 805 787 766 761 748 733 728 736 740 736 744 764 736 737 739 740 741 742 744 748 752 755 757 756 758 762 765 766 769 771 771 773 776 781 784 786 790 794 798 801 803 806 807
762 765 766 779 804 812 802 773 763 753 740 730 732 735 736 739 731 733 736 735 736 738 740 742 744 746 749 753 756 758 760 762 766 769 771 774 775 776 779 781 784 788 792 796 798 802 806 808 810
761 763 773 788 808 808 793 762 750 742 735 738 736 731 733 734 728 729 729 731 734 737 739 741 744 746 750 752 754 757 760 762 764 768 770 771 775 777 781 783 787 790 792 796 799 803 808 810 812
761 765 778 793 794 782 769 751 747 745 735 731 734 738 729 723 722 723 725 728 732 735 738 741 743 746 749 752 754 756 760 763 765 767 770 772 774 778 781 785 788 792 794 796 799 802 807 811 813
761 772 790 792 785 769 756 750 747 748 743 735 732 737 731 723 723 723 727 727 731 734 737 740 742 745 748 752 754 756 760 763 766 766 770 772 775 777 780 783 788 792 795 799 801 803 808 810 814
771 775 794 794 780 760 752 744 744 744 736 731 734 737 732 724 724 726 730 730 732 732 736 740 742 745 748 750 754 757 759 763 767 767 769 774 777 782 782 786 788 791 796 800 804 806 808 811 817
768 781 784 779 773 764 746 736 740 738 734 729 720 738 731 727 726 729 731 734 732 732 734 737 742 745 747 750 753 756 759 763 770 765 764 780 784 786 787 787 791 793 797 800 806 808 810 813 818
763 771 776 772 768 761 739 733 728 732 730 712 715 734 735 722 725 730 732 734 733 734 735 736 739 743 744 748 751 756 759 761 766 761 772 780 786 783 792 791 792 796 798 801 806 810 812 815 819
756 774 779 766 761 748 733 736 727 723 726 723 719 716 711 715 724 729 730 732 732 733 735 735 737 741 743 746 748 752 756 757 760 757 765 781 787 788 791 794 791 797 800 803 806 811 815 817 821
760 769 757 746 740 741 737 737 735 731 728 723 721 717 712 713 719 724 727 728 730 730 732 733 735 739 741 744 746 749 751 755 758 757 763 774 778 784 789 793 792 798 801 805 809 812 816 819 822
751 743 741 737 733 735 739 735 731 734 732 722 726 719 719 715 718 720 724 723 723 727 730 730 733 737 739 741 744 747 749 753 757 760 764 771 774 780 787 788 793 798 803 806 809 812 815 818 821
752 739 734 733 732 735 738 729 731 731 722 712 713 713 716 714 715 715 720 719 721 726 728 728 731 735 738 741 743 745 748 751 755 759 763 767 771 776 783 786 791 795 800 805 809 810 814 818 822
744 737 731 729 729 730 729 730 728 722 713 708 709 710 712 709 709 712 717 718 719 722 725 726 729 733 736 738 741 744 747 750 753 758 761 765 768 771 776 784 787 792 798 804 809 811 814 819 824
737 733 729 726 725 725 728 722 724 711 703 706 706 706 707 704 706 711 714 714 716 719 721 723 727 731 733 736 739 742 745 748 751 755 759 764 766 769 773 778 783 789 796 803 808 813 815 820 823
734 738 728 724 720 722 719 723 721 706 701 703 703 699 701 699 703 703 705 707 710 714 718 720 723 729 731 733 736 739 742 746 748 750 755 758 763 765 769 774 780 788 795 800 807 814 816 820 824
738 735 739 717 716 713 719 716 707 700 699 699 698 698 696 698 694 696 702 704 708 712 716 718 721 726 729 732 734 736 739 742 744 746 749 753 758 762 767 773 778 787 793 799 805 811 815 821 822
743 744 740 727 710 710 716 711 700 695 695 697 695 695 694 693 694 695 699 701 705 712 713 716 719 724 727 731 734 735 736 739 742 743 745 749 753 753 762 770 776 784 791 797 802 811 812 817 822
748 746 736 732 715 710 713 713 702 694 694 694 691 687 692 690 685 687 694 700 703 711 712 714 718 722 726 729 732 734 736 738 739 735 740 746 747 753 763 769 776 783 791 795 800 808 813 815 820
739 738 739 732 718 717 714 708 701 694 694 692 683 678 686 682 674 687 693 697 702 709 710 712 716 720 724 728 731 734 735 737 739 739 740 745 750 757 765 770 777 783 789 793 801 807 811 815 819
740 740 736 725 713 712 712 707 696 690 689 682 678 671 673 677 681 685 691 696 698 704 707 710 714 718 722 726 730 733 736 738 739 741 744 748 753 759 766 772 776 783 788 794 800 804 808 813 817
738 738 733 730 716 706 708 702 694 681 678 673 668 661 663 665 673 682 687 692 698 702 704 707 713 716 720 725 729 733 737 739 741 744 748 752 756 760 765 773 777 783 788 791 796 801 805 808 815
739 727 725 726 725 727 710 719 697 686 678 670 666 664 662 660 667 670 679 688 691 696 701 706 712 716 720 723 727 731 734 738 741 744 748 752 756 758 763 770 776 781 786 789 793 798 803 806 811
732 724 728 727 729 728 719 724 692 681 678 668 662 654 657 658 659 665 670 675 685 694 699 705 711 716 719 722 725 729 733 738 741 744 747 751 753 756 762 768 773 779 785 789 792 797 800 804 809
722 729 730 728 729 729 714 713 700 689 672 661 654 653 654 656 655 658 666 678 684 693 698 703 708 713 716 720 724 726 732 737 740 743 746 749 752 752 758 765 771 779 782 789 792 796 799 804 806
724 733 731 732 731 715 694 702 689 670 660 656 651 642 642 647 651 660 666 672 680 686 693 700 705 709 714 718 722 724 728 734 738 741 743 747 750 754 758 764 769 774 780 786 790 793 796 801 803
724 730 728 721 721 712 689 696 679 654 648 650 647 641 636 642 643 647 656 662 671 680 689 696 701 707 711 716 719 723 726 730 736 741 744 746 750 755 759 763 767 771 775 781 786 789 795 798 801
727 730 722 726 723 725 706 682 664 656 655 655 655 644 637 637 635 642 653 658 667 675 683 691 699 705 709 714 718 722 726 729 732 737 743 747 750 753 757 761 765 770 774 777 781 785 789 792 797
722 720 730 727 722 718 699 684 686 682 676 664 658 656 653 637 640 647 654 656 665 674 684 692 699 703 708 714 718 722 725 728 731 733 737 742 747 752 755 758 763 767 771 775 777 781 785 788 791
723 723 727 722 719 714 710 698 688 693 684 674 668 664 662 645 647 653 661 667 674 682 690 696 702 706 711 714 718 722 724 727 729 732 735 739 744 748 753 756 759 763 767 770 775 778 781 784 786
709 716 724 719 718 717 715 701 691 690 683 676 676 675 670 660 657 660 666 672 678 685 692 699 703 707 712 716 721 723 726 729 731 733 735 739 742 747 750 754 757 760 763 765 768 771 774 776 778
Wind_Speed
5 3 2 4 3 4 4 7 4 7 6 3 3 4 7 3 4 4 6 15 14 18 19 21 23 25 24 23 23 24 24 27 28 31 34 36 37 37 36 34 31 28 27 26 26 26 27 27 32
8 8 4 2 4 1 5 5 6 6 6 2 3 4 2 2 2 6 10 17 18 19 20 21 22 25 26 25 24 23 23 24 27 30 33 35 34 35 34 32 30 28 28 27 27 27 26 29 31
10 4 4 4 4 6 6 6 4 8 3 2 3 2 6 4 4 11 8 22 21 19 19 19 21 24 25 26 25 24 23 24 26 30 32 33 33 32 32 31 30 28 30 27 27 27 27 32 33
6 4 4 4 8 7 7 5 2 10 9 3 3 2 2 5 9 17 19 24 22 21 20 19 20 22 25 25 25 25 24 24 26 29 31 33 32 33 32 31 30 30 28 27 29 30 33 34 36
4 3 2 3 7 7 4 6 7 11 4 9 2 5 3 6 6 19 27 25 22 20 20 19 19 21 24 25 26 26 25 25 27 30 31 32 33 34 33 33 32 30 31 29 31 33 35 36 34
3 3 2 5 6 6 7 6 3 7 13 15 4 5 4 5 13 24 22 22 18 16 19 20 21 22 23 24 25 25 26 27 28 31 31 28 32 30 33 33 33 31 29 30 32 35 36 34 32
6 4 6 6 4 7 6 5 5 7 12 10 6 7 3 3 17 20 20 20 18 15 17 20 21 21 22 24 25 24 24 24 20 23 23 18 21 20 28 30 29 31 32 33 32 35 34 33 31
5 4 4 6 6 11 7 3 2 2 9 4 8 6 5 7 20 19 17 17 17 16 15 17 20 22 22 24 23 23 23 22 26 18 17 21 15 19 18 24 28 30 33 36 35 36 34 30 29
4 1 5 8 10 8 1 4 3 3 3 6 5 9 5 25 25 21 18 15 16 16 16 16 18 19 20 19 21 22 25 31 30 29 25 26 25 27 23 26 28 30 32 36 37 34 28 27 30
5 5 10 6 11 7 1 3 9 6 10 10 4 6 10 30 27 20 15 15 19 18 17 16 16 17 17 17 17 18 21 31 29 31 35 34 32 28 26 24 29 28 34 36 36 31 27 31 34
6 12 4 6 8 6 5 8 3 6 13 10 9 5 7 12 17 16 16 22 27 22 18 16 15 15 17 17 19 20 20 27 31 33 38 39 38 36 32 26 28 30 37 37 35 29 33 34 33
8 7 13 5 5 3 7 6 7 6 16 13 11 7 12 14 15 14 16 21 21 22 20 16 15 15 16 17 20 23 25 31 32 34 37 40 34 35 32 31 35 35 41 37 36 32 33 37 34
10 8 9 7 8 8 8 12 13 13 18 15 8 10 16 15 14 14 18 24 24 24 21 19 16 15 16 18 20 23 24 27 32 33 35 42 41 30 31 34 38 37 42 39 36 31 35 36 33
7 9 14 10 13 7 11 15 4 16 17 11 9 14 16 15 15 8 18 21 26 26 23 20 18 16 17 19 18 20 22 26 30 36 37 41 32 36 37 36 39 37 43 41 38 36 35 32 30
7 12 9 8 5 7 6 15 10 16 14 13 9 13 14 16 12 16 24 25 33 30 24 21 22 19 19 18 18 19 20 21 24 30 35 37 42 35 37 35 37 40 45 42 41 36 34 28 26
5 5 7 3 8 8 10 25 12 11 11 11 11 10 14 11 16 22 28 28 32 29 25 23 23 24 20 17 16 15 18 19 21 26 29 38 35 36 39 37 41 41 43 40 42 37 33 26 27
3 11 9 6 8 6 9 13 8 7 7 9 10 9 12 12 9 15 26 31 33 29 28 26 25 24 19 14 11 10 9 16 18 24 26 35 28 45 40 38 41 41 43 41 42 36 34 28 29
5 6 4 5 3 3 6 9 9 8 6 11 9 7 12 13 19 20 27 30 33 31 29 27 26 23 20 15 11 9 9 12 14 20 33 25 36 41 37 36 40 42 41 39 40 36 29 27 28
6 5 5 5 8 6 8 13 13 9 8 10 12 13 10 16 16 16 24 29 31 30 31 30 29 25 21 19 16 11 10 10 14 21 27 32 38 33 33 34 37 40 41 40 39 35 29 25 27
8 9 9 6 7 10 8 12 14 14 8 12 14 17 14 8 10 14 21 26 30 29 31 33 30 26 23 20 18 12 14 11 14 19 27 27 31 29 29 31 36 35 35 40 37 36 26 23 28
9 7 4 7 9 16 4 13 15 13 7 7 12 14 8 16 15 15 16 25 27 28 31 34 31 27 24 20 20 15 15 9 13 16 22 28 33 38 36 31 35 34 34 39 40 34 30 20 29
10 6 9 5 6 9 2 7 8 8 8 5 9 8 8 14 14 16 17 18 29 29 31 31 30 29 26 24 22 22 15 11 13 21 23 26 32 32 37 33 34 36 33 37 40 35 31 30 24
5 4 4 6 8 7 8 6 7 5 9 10 8 7 8 12 17 17 20 26 27 27 28 26 24 24 26 27 23 25 19 15 14 17 21 23 25 36 36 37 32 30 34 34 39 35 29 34 28
1 3 4 6 7 7 10 8 4 5 9 5 5 4 10 12 15 18 14 21 24 25 25 25 25 24 28 29 26 25 23 20 17 20 20 24 22 26 32 28 31 34 29 29 34 34 32 28 27
8 2 2 4 6 6 6 9 11 8 8 12 13 13 7 11 13 13 17 17 25 28 26 26 26 23 26 30 28 27 25 22 21 19 19 21 22 22 26 29 30 34 40 34 34 26 25 23 19
11 5 3 4 3 3 5 5 5 10 13 5 11 12 10 10 15 19 20 19 25 28 28 27 27 24 24 26 25 26 25 23 23 22 20 22 22 23 32 31 31 32 39 41 33 33 34 31 25
3 8 0 3 3 1 4 5 5 11 13 14 16 13 8 7 15 18 16 15 25 28 29 27 26 24 25 24 23 25 26 25 23 22 23 22 22 25 27 31 30 30 35 35 29 29 32 33 33
4 1 2 3 3 2 4 5 3 11 14 15 16 18 16 4 7 9 12 15 22 24 24 23 23 26 23 21 20 20 25 25 24 23 26 27 26 25 28 30 30 30 31 39 36 33 34 39 39
4 3 3 2 2 2 3 0 5 9 12 13 15 15 15 5 8 8 7 12 15 14 14 16 17 19 18 19 20 18 24 23 24 24 24 26 26 26 25 29 32 33 33 33 35 33 30 36 36
5 5 4 2 3 3 0 3 5 8 13 17 14 13 14 16 15 14 13 14 17 17 14 13 13 14 12 15 17 16 18 21 20 22 24 26 29 29 31 30 32 33 34 36 37 37 33 39 37
Wind_Direction
196 181 148 50 55 65 255 258 234 267 316 226 138 148 189 155 157 206 155 169 188 181 180 184 187 186 185 181 175 167 163 158 156 158 164 165 161 159 157 156 153 147 141 139 138 135 136 137 139
166 144 81 85 103 119 261 248 252 257 243 17 84 104 130 212 140 150 147 184 179 180 183 187 189 191 187 186 181 174 168 163 161 161 163 163 161 160 161 159 154 150 145 141 139 139 142 141 144
148 151 99 137 149 205 219 215 213 329 345 295 248 6 153 201 172 170 184 172 179 186 185 187 192 194 193 189 185 181 179 175 172 170 171 169 168 166 165 161 156 155 148 145 144 146 147 148 145
149 31 31 129 224 248 208 265 311 338 321 201 271 180 255 210 170 184 174 174 184 188 190 186 191 197 199 197 192 189 187 182 178 174 174 171 170 168 166 160 160 154 149 154 149 153 150 149 146
85 63 158 212 239 263 245 252 307 293 257 267 204 221 218 312 184 171 173 175 182 187 191 191 192 199 203 204 201 196 192 188 183 176 174 170 166 165 163 161 160 158 157 155 156 152 151 149 148
56 102 126 220 235 250 272 237 253 246 270 260 205 167 194 267 172 169 173 174 182 189 191 196 197 203 208 210 210 207 203 195 188 181 168 167 163 166 163 161 159 156 154 156 156 150 151 150 151
152 132 213 194 210 282 240 197 222 270 269 239 153 146 278 230 178 169 170 175 178 186 191 194 201 205 210 214 217 215 211 207 198 181 145 164 163 169 167 162 159 157 157 157 156 155 155 150 152
132 132 197 203 175 246 245 216 270 20 322 352 148 181 222 209 173 167 165 165 167 175 185 187 197 208 211 218 219 216 214 190 172 131 148 152 160 163 183 172 165 164 163 160 158 160 158 153 154
129 208 216 196 185 236 243 5 194 297 282 332 299 161 220 165 164 162 160 168 170 176 184 188 200 210 216 221 221 220 219 188 168 167 184 186 197 183 187 190 169 171 169 163 160 160 164 162 160
175 212 214 207 222 239 352 327 316 344 319 303 316 317 139 153 163 167 174 177 187 190 195 196 201 209 207 217 215 215 202 201 199 194 188 181 180 180 200 196 180 177 174 165 162 159 159 160 157
220 241 216 225 231 245 278 277 247 299 292 259 265 247 198 161 176 181 186 187 194 196 196 194 198 202 205 204 195 184 186 184 183 184 185 185 189 187 197 197 189 181 176 165 163 159 162 164 161
261 236 229 247 236 258 247 279 272 202 258 269 268 212 184 175 189 194 190 195 196 199 197 196 195 194 202 208 192 184 184 182 188 196 189 191 181 184 197 195 190 180 179 169 168 163 168 167 168
242 251 261 257 251 244 263 259 256 274 267 271 261 170 197 189 200 200 198 201 197 197 197 194 192 200 195 200 201 199 195 195 195 189 190 187 192 209 192 191 187 184 182 176 170 165 167 167 167
296 270 258 244 255 246 258 270 242 270 266 274 197 201 205 191 200 163 188 191 197 199 195 191 193 201 197 190 196 199 202 207 208 208 205 205 196 194 182 182 185 188 187 181 173 164 160 167 175
256 268 277 252 218 218 224 273 232 254 266 260 218 212 215 206 171 196 190 186 190 196 191 189 184 189 198 195 198 206 207 210 213 215 205 196 197 180 176 178 184 190 188 184 178 168 165 160 169
266 261 266 219 213 232 153 264 265 248 248 247 241 218 212 205 202 197 194 186 188 188 189 184 183 186 191 196 201 205 207 208 219 222 219 206 200 193 183 180 186 192 187 187 178 171 164 165 175
259 263 277 287 224 221 170 256 244 269 275 255 253 198 215 208 214 194 188 183 184 191 184 181 180 183 190 192 204 194 197 207 219 219 211 212 203 170 173 179 184 189 186 185 181 178 170 164 170
240 267 272 262 300 317 277 266 275 267 279 267 259 238 204 207 212 191 178 181 183 189 185 183 182 185 187 190 206 204 202 201 214 205 198 182 168 171 177 178 184 186 185 185 184 182 174 166 168
275 262 249 279 279 294 264 277 280 283 280 285 283 268 208 200 211 162 167 172 176 185 182 183 182 182 186 185 187 181 194 184 187 151 146 173 180 177 183 182 185 187 187 185 186 182 176 167 169
263 268 277 276 273 306 292 287 287 284 255 251 264 260 223 159 153 155 163 170 176 179 181 180 186 186 195 186 189 191 195 198 171 161 170 172 177 188 192 187 186 185 185 185 185 183 183 174 173
246 249 259 263 300 297 307 295 286 276 243 263 273 242 204 182 172 163 170 177 175 180 181 182 189 191 192 182 190 197 191 182 184 174 178 179 189 191 193 190 186 185 187 184 185 185 188 181 184
267 227 252 303 338 277 44 282 279 284 277 258 268 226 202 180 189 178 168 177 183 183 181 185 190 193 195 191 180 195 193 186 201 198 194 191 193 187 195 188 191 188 191 190 190 191 197 193 191
247 296 346 322 306 291 266 263 279 246 286 287 265 241 211 200 188 183 185 184 177 173 174 176 181 187 194 196 183 187 192 198 203 201 199 194 188 186 189 188 190 195 199 201 197 199 203 203 201
129 27 290 250 273 247 217 225 248 228 242 280 296 233 217 207 203 198 175 162 165 171 173 174 177 185 194 200 197 189 189 196 204 204 201 193 197 171 181 186 193 206 204 214 211 209 207 207 208
183 217 251 206 215 240 191 212 242 270 262 279 284 292 241 193 195 178 166 165 168 173 175 178 180 183 191 200 204 202 198 201 210 203 198 196 201 194 189 197 203 208 210 214 209 200 202 208 211
194 202 213 243 216 281 216 250 231 230 245 298 315 264 278 204 196 182 178 170 168 173 176 179 182 181 187 195 201 208 205 198 201 209 208 202 197 202 204 203 206 211 211 217 223 223 227 231 223
174 215 5 335 235 303 255 287 279 2 15 12 358 340 273 247 185 178 172 166 165 172 178 180 181 183 188 195 201 207 207 201 201 209 212 214 214 209 204 208 208 212 207 204 205 211 220 221 223
177 175 134 168 294 242 248 231 11 8 5 2 8 359 328 151 145 164 175 162 168 166 169 174 181 184 189 195 200 201 208 208 211 213 213 214 214 209 204 208 212 213 214 217 216 218 223 220 229
165 189 232 247 244 291 315 32 39 350 348 4 13 5 338 330 101 101 100 97 120 133 156 170 179 174 185 195 198 204 210 213 220 226 227 224 220 212 212 217 218 219 219 218 217 220 220 221 223
163 146 185 215 186 217 278 250 332 349 5 17 17 20 20 50 77 81 86 99 106 114 138 160 164 177 189 192 198 218 210 213 211 221 231 232 231 228 223 224 230 231 228 228 226 228 227 229 227